{"data":{"norad_id":59045,"epoch":"2026-09-19T14:43:20.271648Z","epoch_age_seconds":232967,"freshness":"STALE","line1":"1 59045U 24038Y   26262.61342907  .00000206  00000+0  17021-4 0  9992","line2":"2 59045  43.0045   8.6205 0001471 290.4946  69.5748 15.27577425144518","mean_motion":15.27577425,"eccentricity":0.0001471,"inclination_deg":43.0045,"raan_deg":8.6205,"arg_perigee_deg":290.4946,"mean_anomaly_deg":69.5748,"bstar":1.7021e-5,"rev_number":14451,"period_min":94.26690761681,"perigee_km":482.0475249179,"apogee_km":484.06608813578,"semimajor_km":6861.1938065268,"source":"CELESTRAK","updated_at":"2026-09-21T09:00:34.032929Z"}}